| time (UTC) | temp F | wind direction | speed MPH | gust MPH | rain 1hr in | rain 24hr in | rain mn in | humidity % | barometer mb |
| 20260903151547 | 80 | 92 | 1.0 | 6.0 | 0.00 | 0.46 | 0.01 | 89 | 1017.1 |
| 20260903150044 | 80 | 9 | 2.0 | 9.0 | 0.00 | 0.46 | 0.01 | 89 | 1016.8 |
| 20260903145520 | 79 | 218 | 2.0 | 7.0 | 0.00 | 0.46 | 0.01 | 91 | 1016.7 |
| 20260903145020 | 79 | 158 | 0.0 | 4.0 | 0.00 | 0.46 | 0.01 | 91 | 1016.8 |
| 20260903144539 | 79 | 0 | 0.0 | 4.0 | 0.00 | 0.46 | 0.01 | 91 | 1016.7 |
| 20260903144020 | 79 | 131 | 1.0 | 4.0 | 0.00 | 0.46 | 0.01 | 92 | 1016.6 |
| 20260903143050 | 78 | 32 | 1.0 | 7.0 | 0.00 | 0.46 | 0.01 | 92 | 1016.2 |
| 20260903141540 | 77 | 142 | 0.0 | 6.0 | 0.00 | 0.46 | 0.01 | 94 | 1016.7 |
| 20260903140054 | 76 | 14 | 0.0 | 5.0 | 0.00 | 0.46 | 0.01 | 96 | 1016.4 |
| 20260903135520 | 76 | 140 | 0.0 | 5.0 | 0.00 | 0.46 | 0.01 | 96 | 1016.1 |
| 20260903135020 | 76 | 0 | 0.0 | 3.0 | 0.00 | 0.46 | 0.01 | 96 | 1016.3 |
| 20260903134544 | 76 | 180 | 0.0 | 3.0 | 0.00 | 0.46 | 0.01 | 96 | 1016.3 |
| 20260903133043 | 76 | 153 | 1.0 | 7.0 | 0.00 | 0.46 | 0.01 | 96 | 1016.1 |
| 20260903131540 | 76 | 0 | 0.0 | 2.0 | 0.00 | 0.46 | 0.01 | 97 | 1017.2 |
| 20260903131021 | 76 | 0 | 0.0 | 2.0 | 0.00 | 0.46 | 0.01 | 97 | 1017.1 |
| 20260903130521 | 75 | 0 | 0.0 | 2.0 | 0.00 | 0.46 | 0.01 | 97 | 1017.2 |
| 20260903130051 | 75 | 170 | 0.0 | 2.0 | 0.00 | 0.46 | 0.01 | 97 | 1017.4 |
| 20260903124540 | 75 | 135 | 0.0 | 2.0 | 0.00 | 0.46 | 0.01 | 98 | 1017.6 |
| 20260903123521 | 75 | 157 | 1.0 | 3.0 | 0.00 | 0.46 | 0.01 | 98 | 1017.9 |
| 20260903123042 | 75 | 132 | 0.0 | 1.0 | 0.00 | 0.46 | 0.01 | 98 | 1018.1 |
| 20260903122523 | 75 | 0 | 0.0 | 2.0 | 0.00 | 0.46 | 0.01 | 98 | 1018.1 |
| 20260903122024 | 75 | 0 | 0.0 | 2.0 | 0.00 | 0.46 | 0.01 | 98 | 1018.1 |
| 20260903121539 | 74 | 173 | 0.0 | 1.0 | 0.00 | 0.46 | 0.01 | 98 | 1018.2 |
| 20260903121024 | 74 | 0 | 0.0 | 1.0 | 0.01 | 0.46 | 0.01 | 98 | 1018.2 |
| 20260903120047 | 74 | 0 | 0.0 | 2.0 | 0.01 | 0.46 | 0.01 | 98 | 1018.4 |
| 20260903114559 | 74 | 200 | 0.0 | 2.0 | 0.01 | 0.46 | 0.01 | 98 | 1018.8 |
| 20260903113522 | 74 | 0 | 0.0 | 1.0 | 0.01 | 0.46 | 0.01 | 98 | 1018.9 |
| 20260903113039 | 74 | 0 | 0.0 | 1.0 | 0.01 | 0.46 | 0.01 | 98 | 1018.8 |
| 20260903112524 | 74 | 0 | 0.0 | 1.0 | 0.01 | 0.46 | 0.01 | 98 | 1018.7 |
| 20260903112020 | 74 | 0 | 0.0 | 2.0 | 0.01 | 0.46 | 0.01 | 98 | 1018.4 |
| 20260903111539 | 73 | 0 | 0.0 | 2.0 | 0.01 | 0.46 | 0.01 | 98 | 1018.1 |
| 20260903110051 | 73 | 0 | 0.0 | 1.0 | 0.00 | 0.45 | 0.00 | 98 | 1017.8 |
| 20260903104541 | 73 | 0 | 0.0 | 1.0 | 0.00 | 0.45 | 0.00 | 98 | 1017.4 |
| 20260903103039 | 73 | 0 | 0.0 | 1.0 | 0.00 | 0.45 | 0.00 | 98 | 1017.1 |
| 20260903102022 | 73 | 0 | 0.0 | 1.0 | 0.00 | 0.45 | 0.00 | 98 | 1017.1 |
| 20260903101538 | 73 | 0 | 0.0 | 1.0 | 0.00 | 0.45 | 0.00 | 98 | 1017.1 |
| 20260903100041 | 72 | 0 | 0.0 | 0.0 | 0.00 | 0.45 | 0.00 | 97 | 1016.4 |
| 20260903095018 | 72 | 0 | 0.0 | 1.0 | 0.00 | 0.45 | 0.00 | 97 | 1016.5 |
| 20260903094542 | 72 | 0 | 0.0 | 1.0 | 0.00 | 0.45 | 0.00 | 97 | 1016.6 |
| 20260903094020 | 73 | 0 | 0.0 | 1.0 | 0.00 | 0.45 | 0.00 | 97 | 1016.7 |
| 20260903093520 | 72 | 115 | 0.0 | 1.0 | 0.00 | 0.45 | 0.00 | 97 | 1016.7 |
| 20260903093051 | 72 | 0 | 0.0 | 0.0 | 0.00 | 0.45 | 0.00 | 97 | 1016.8 |
| 20260903092520 | 72 | 0 | 0.0 | 0.0 | 0.00 | 0.45 | 0.00 | 97 | 1016.9 |
| 20260903091546 | 73 | 0 | 0.0 | 0.0 | 0.00 | 0.45 | 0.00 | 97 | 1016.9 |
| 20260903090041 | 73 | 0 | 0.0 | 1.0 | 0.00 | 0.45 | 0.00 | 97 | 1017.0 |
| 20260903084539 | 73 | 0 | 0.0 | 2.0 | 0.00 | 0.45 | 0.00 | 97 | 1016.7 |
| 20260903084020 | 73 | 0 | 0.0 | 2.0 | 0.00 | 0.45 | 0.00 | 97 | 1016.9 |
| 20260903083520 | 73 | 0 | 0.0 | 2.0 | 0.00 | 0.45 | 0.00 | 97 | 1017.0 |
| 20260903083039 | 73 | 0 | 0.0 | 1.0 | 0.00 | 0.45 | 0.00 | 97 | 1017.1 |
| 20260903082519 | 73 | 0 | 0.0 | 2.0 | 0.00 | 0.45 | 0.00 | 97 | 1017.0 |
| 20260903082020 | 73 | 0 | 0.0 | 2.0 | 0.00 | 0.45 | 0.00 | 97 | 1016.9 |
| 20260903081544 | 73 | 49 | 0.0 | 2.0 | 0.00 | 0.45 | 0.00 | 97 | 1016.9 |
| 20260903080040 | 72 | 0 | 0.0 | 1.0 | 0.00 | 0.45 | 0.00 | 97 | 1016.8 |
| 20260903075519 | 72 | 0 | 0.0 | 2.0 | 0.00 | 0.45 | 0.00 | 97 | 1016.7 |
| 20260903075020 | 72 | 0 | 0.0 | 2.0 | 0.00 | 0.45 | 0.00 | 97 | 1016.7 |
| 20260903074541 | 72 | 303 | 0.0 | 1.0 | 0.00 | 0.45 | 0.00 | 97 | 1016.8 |
| 20260903073045 | 72 | 0 | 0.0 | 1.0 | 0.00 | 0.45 | 0.00 | 97 | 1016.7 |
| 20260903071540 | 72 | 0 | 0.0 | 0.0 | 0.00 | 0.45 | 0.00 | 97 | 1016.6 |
| 20260903070039 | 72 | 0 | 0.0 | 0.0 | 0.00 | 0.45 | 0.00 | 97 | 1016.7 |
| 20260903065520 | 72 | 0 | 0.0 | 0.0 | 0.00 | 0.45 | 0.00 | 97 | 1016.5 |
| 20260903065018 | 72 | 0 | 0.0 | 0.0 | 0.00 | 0.45 | 0.00 | 97 | 1016.5 |
| 20260903064544 | 72 | 0 | 0.0 | 1.0 | 0.00 | 0.45 | 0.00 | 97 | 1016.4 |
| 20260903063041 | 72 | 0 | 0.0 | 2.0 | 0.00 | 0.45 | 0.00 | 97 | 1016.5 |
| 20260903062019 | 72 | 0 | 0.0 | 0.0 | 0.00 | 0.45 | 0.00 | 97 | 1016.7 |
| 20260903061540 | 72 | 0 | 0.0 | 0.0 | 0.00 | 0.45 | 0.00 | 97 | 1016.7 |
| 20260903061019 | 72 | 0 | 0.0 | 0.0 | 0.00 | 0.45 | 0.00 | 97 | 1016.6 |
| 20260903060522 | 72 | 0 | 0.0 | 0.0 | 0.00 | 0.45 | 0.00 | 97 | 1016.6 |
| 20260903060042 | 72 | 0 | 0.0 | 0.0 | 0.00 | 0.45 | 0.00 | 97 | 1016.6 |
| 20260903055518 | 72 | 0 | 0.0 | 1.0 | 0.00 | 0.45 | 0.00 | 97 | 1016.8 |
| 20260903055022 | 72 | 0 | 0.0 | 1.0 | 0.00 | 0.45 | 0.00 | 97 | 1016.8 |
| 20260903054539 | 72 | 0 | 0.0 | 1.0 | 0.00 | 0.45 | 0.00 | 97 | 1016.6 |
| 20260903053045 | 72 | 0 | 0.0 | 0.0 | 0.00 | 0.45 | 0.00 | 97 | 1017.2 |
| 20260903051541 | 71 | 0 | 0.0 | 1.0 | 0.00 | 0.45 | 0.00 | 97 | 1017.0 |
| 20260903050523 | 71 | 0 | 0.0 | 1.0 | 0.00 | 0.45 | 0.00 | 97 | 1017.2 |
| 20260903050045 | 71 | 103 | 0.0 | 1.0 | 0.00 | 0.45 | 0.00 | 97 | 1017.0 |
| 20260903044541 | 71 | 0 | 0.0 | 0.0 | 0.00 | 0.45 | 0.00 | 96 | 1017.2 |
| 20260903043038 | 72 | 0 | 0.0 | 0.0 | 0.00 | 0.45 | 0.00 | 96 | 1017.2 |
| 20260903042523 | 72 | 0 | 0.0 | 0.0 | 0.00 | 0.45 | 0.00 | 96 | 1017.3 |
| 20260903042018 | 72 | 0 | 0.0 | 0.0 | 0.00 | 0.45 | 0.00 | 97 | 1017.5 |
| 20260903041539 | 72 | 0 | 0.0 | 0.0 | 0.00 | 0.45 | 0.00 | 97 | 1017.4 |
| 20260903040043 | 72 | 0 | 0.0 | 0.0 | 0.00 | 0.45 | 0.00 | 97 | 1017.6 |
| 20260903034540 | 72 | 0 | 0.0 | 1.0 | 0.00 | 0.45 | 0.45 | 97 | 1017.4 |
| 20260903033041 | 72 | 0 | 0.0 | 1.0 | 0.00 | 0.45 | 0.45 | 96 | 1017.6 |
| 20260903032525 | 72 | 0 | 0.0 | 1.0 | 0.00 | 0.45 | 0.45 | 96 | 1017.5 |
| 20260903032021 | 72 | 0 | 0.0 | 1.0 | 0.00 | 0.45 | 0.45 | 96 | 1017.4 |
| 20260903031538 | 72 | 0 | 0.0 | 1.0 | 0.00 | 0.45 | 0.45 | 96 | 1017.5 |
| 20260903031018 | 72 | 0 | 0.0 | 1.0 | 0.00 | 0.45 | 0.45 | 96 | 1017.5 |
| 20260903030045 | 72 | 0 | 0.0 | 1.0 | 0.00 | 0.45 | 0.45 | 96 | 1017.5 |
| 20260903024544 | 72 | 0 | 0.0 | 1.0 | 0.00 | 0.45 | 0.45 | 97 | 1017.4 |
| 20260903023048 | 72 | 0 | 0.0 | 1.0 | 0.00 | 0.45 | 0.45 | 96 | 1017.9 |
| 20260903022520 | 71 | 0 | 0.0 | 2.0 | 0.00 | 0.45 | 0.45 | 96 | 1017.8 |
| 20260903022021 | 71 | 0 | 0.0 | 2.0 | 0.00 | 0.45 | 0.45 | 96 | 1017.9 |
| 20260903021546 | 71 | 104 | 0.0 | 1.0 | 0.00 | 0.45 | 0.45 | 96 | 1017.8 |
| 20260903021024 | 71 | 0 | 0.0 | 1.0 | 0.00 | 0.45 | 0.45 | 96 | 1017.8 |
| 20260903020042 | 71 | 0 | 0.0 | 2.0 | 0.00 | 0.45 | 0.45 | 96 | 1017.5 |
| 20260903014606 | 72 | 0 | 0.0 | 1.0 | 0.00 | 0.45 | 0.45 | 96 | 1017.6 |
| 20260903014021 | 72 | 0 | 0.0 | 1.0 | 0.00 | 0.45 | 0.45 | 96 | 1017.8 |
| 20260903013520 | 72 | 116 | 0.0 | 1.0 | 0.00 | 0.45 | 0.45 | 96 | 1017.7 |
| 20260903013046 | 72 | 0 | 0.0 | 1.0 | 0.00 | 0.45 | 0.45 | 96 | 1017.5 |
| 20260903011542 | 72 | 0 | 0.0 | 1.0 | 0.00 | 0.45 | 0.45 | 96 | 1017.2 |
| 20260903010040 | 72 | 152 | 0.0 | 2.0 | 0.00 | 0.45 | 0.45 | 95 | 1017.3 |
| 20260903005018 | 72 | 0 | 0.0 | 2.0 | 0.00 | 0.45 | 0.45 | 95 | 1017.3 |
| 20260903004547 | 72 | 0 | 0.0 | 1.0 | 0.00 | 0.45 | 0.45 | 95 | 1017.3 |
| 20260903004021 | 72 | 0 | 0.0 | 0.0 | 0.00 | 0.45 | 0.45 | 95 | 1017.4 |
| 20260903003521 | 72 | 0 | 0.0 | 1.0 | 0.00 | 0.45 | 0.45 | 95 | 1017.3 |
| 20260903003046 | 72 | 0 | 0.0 | 1.0 | 0.00 | 0.45 | 0.45 | 95 | 1017.1 |
| 20260903001543 | 72 | 0 | 0.0 | 1.0 | 0.00 | 0.45 | 0.45 | 95 | 1017.0 |
| 20260903000040 | 73 | 0 | 0.0 | 0.0 | 0.00 | 0.45 | 0.45 | 94 | 1017.3 |
| 20260902235022 | 73 | 0 | 0.0 | 0.0 | 0.00 | 0.45 | 0.45 | 94 | 1017.2 |
| 20260902234548 | 73 | 0 | 0.0 | 1.0 | 0.00 | 0.45 | 0.45 | 94 | 1017.2 |
| 20260902234020 | 73 | 0 | 0.0 | 1.0 | 0.00 | 0.45 | 0.45 | 93 | 1017.3 |
| 20260902233040 | 73 | 0 | 0.0 | 1.0 | 0.00 | 0.45 | 0.45 | 93 | 1017.3 |
| 20260902231548 | 74 | 0 | 0.0 | 1.0 | 0.00 | 0.45 | 0.45 | 91 | 1017.4 |
| 20260902230042 | 74 | 0 | 0.0 | 1.0 | 0.00 | 0.45 | 0.45 | 91 | 1017.3 |
| 20260902224545 | 75 | 228 | 0.0 | 3.0 | 0.00 | 0.45 | 0.45 | 89 | 1017.4 |
| 20260902223521 | 75 | 0 | 0.0 | 2.0 | 0.00 | 0.45 | 0.45 | 91 | 1017.2 |
| 20260902223044 | 75 | 147 | 0.0 | 2.0 | 0.00 | 0.45 | 0.45 | 89 | 1017.3 |
| 20260902221540 | 75 | 0 | 0.0 | 2.0 | 0.00 | 0.45 | 0.45 | 92 | 1017.4 |
| 20260902220043 | 75 | 0 | 0.0 | 1.0 | 0.00 | 0.45 | 0.45 | 93 | 1017.6 |
| 20260902214539 | 74 | 17 | 0.0 | 1.0 | 0.00 | 0.45 | 0.45 | 94 | 1017.7 |
| 20260902213040 | 74 | 0 | 0.0 | 1.0 | 0.00 | 0.45 | 0.45 | 94 | 1017.9 |
| 20260902211539 | 74 | 0 | 0.0 | 1.0 | 0.00 | 0.45 | 0.45 | 95 | 1017.8 |
| 20260902211021 | 73 | 0 | 0.0 | 0.0 | 0.00 | 0.45 | 0.45 | 95 | 1017.8 |
| 20260902210056 | 73 | 0 | 0.0 | 0.0 | 0.00 | 0.45 | 0.45 | 94 | 1017.9 |
| 20260902204547 | 73 | 0 | 0.0 | 1.0 | 0.00 | 0.45 | 0.45 | 94 | 1017.7 |
| 20260902203038 | 74 | 0 | 0.0 | 2.0 | 0.00 | 0.45 | 0.45 | 93 | 1017.6 |
| 20260902201540 | 74 | 0 | 0.0 | 2.0 | 0.00 | 0.45 | 0.45 | 93 | 1017.8 |
| 20260902200520 | 74 | 292 | 0.0 | 2.0 | 0.00 | 0.45 | 0.45 | 93 | 1018.0 |
| 20260902200040 | 74 | 0 | 0.0 | 2.0 | 0.00 | 0.45 | 0.45 | 93 | 1017.9 |
| 20260902194541 | 74 | 0 | 0.0 | 3.0 | 0.00 | 0.45 | 0.45 | 92 | 1017.7 |
| 20260902194025 | 74 | 160 | 0.0 | 2.0 | 0.00 | 0.45 | 0.45 | 92 | 1017.6 |
| 20260902193520 | 74 | 76 | 0.0 | 1.0 | 0.00 | 0.45 | 0.45 | 92 | 1017.6 |
| 20260902193048 | 74 | 76 | 0.0 | 1.0 | 0.00 | 0.45 | 0.45 | 90 | 1017.6 |
| 20260902191546 | 74 | 96 | 0.0 | 2.0 | 0.00 | 0.45 | 0.45 | 94 | 1017.2 |
| 20260902190052 | 73 | 0 | 1.0 | 2.0 | 0.00 | 0.45 | 0.45 | 95 | 1017.5 |
| 20260902184623 | 73 | 0 | 0.0 | 3.0 | 0.03 | 0.45 | 0.45 | 93 | 1018.0 |
| 20260902184025 | 73 | 5 | 0.0 | 3.0 | 0.06 | 0.45 | 0.45 | 94 | 1018.4 |
| 20260902183055 | 73 | 170 | 0.0 | 2.0 | 0.44 | 0.45 | 0.45 | 93 | 1018.3 |
| 20260902182522 | 73 | 0 | 0.0 | 2.0 | 0.45 | 0.45 | 0.45 | 93 | 1018.2 |
| 20260902182021 | 73 | 188 | 0.0 | 2.0 | 0.45 | 0.45 | 0.45 | 93 | 1018.5 |
| 20260902181541 | 73 | 0 | 0.0 | 1.0 | 0.45 | 0.45 | 0.45 | 92 | 1018.6 |
| 20260902180047 | 74 | 0 | 0.0 | 3.0 | 0.45 | 0.45 | 0.45 | 91 | 1019.5 |
| 20260902174542 | 75 | 0 | 0.0 | 2.0 | 0.42 | 0.42 | 0.42 | 88 | 1020.5 |
| 20260902173050 | 80 | 58 | 2.0 | 8.0 | 0.01 | 0.01 | 0.01 | 79 | 1021.8 |
| 20260902172523 | 82 | 246 | 2.0 | 8.0 | 0.00 | 0.00 | 0.00 | 76 | 1021.8 |
| 20260902172023 | 84 | 42 | 1.0 | 3.0 | 0.00 | 0.00 | 0.00 | 75 | 1021.1 |
| 20260902171541 | 84 | 48 | 1.0 | 6.0 | 0.00 | 0.00 | 0.00 | 75 | 1020.2 |
| 20260902171020 | 84 | 0 | 1.0 | 6.0 | 0.00 | 0.00 | 0.00 | 75 | 1019.7 |
| 20260902170038 | 84 | 125 | 1.0 | 7.0 | 0.00 | 0.00 | 0.00 | 75 | 1019.4 |
| 20260902164544 | 83 | 295 | 1.0 | 6.0 | 0.00 | 0.00 | 0.00 | 77 | 1019.0 |
| 20260902163052 | 83 | 148 | 1.0 | 5.0 | 0.00 | 0.00 | 0.00 | 77 | 1019.0 |
| 20260902162021 | 82 | 0 | 1.0 | 6.0 | 0.00 | 0.00 | 0.00 | 78 | 1019.1 |
| 20260902161549 | 82 | 167 | 2.0 | 6.0 | 0.00 | 0.00 | 0.00 | 77 | 1019.1 |
| 20260902160039 | 82 | 82 | 3.0 | 8.0 | 0.00 | 0.00 | 0.00 | 78 | 1018.9 |
| 20260902154539 | 82 | 162 | 3.0 | 6.0 | 0.00 | 0.00 | 0.00 | 77 | 1018.7 |
| 20260902154021 | 82 | 171 | 2.0 | 6.0 | 0.00 | 0.00 | 0.00 | 77 | 1018.7 |
| 20260902153039 | 82 | 201 | 1.0 | 6.0 | 0.00 | 0.00 | 0.00 | 78 | 1018.7 |